| time (UTC) | temp F | wind direction | speed MPH | gust MPH | rain 1hr in | rain 24hr in | rain mn in | humidity % | barometer mb |
| 20260505151521 | 56 | 294 | 0.0 | 0.0 | 0.00 | 0.00 | 0.00 | 77 | 974.8 |
| 20260505124515 | 55 | 294 | 0.0 | 0.0 | 0.00 | 0.00 | 0.00 | 75 | 974.8 |
| 20260505123008 | 55 | 355 | 0.0 | 0.0 | 0.00 | 0.00 | 0.00 | 74 | 974.8 |
| 20260505121526 | 55 | 355 | 0.0 | 0.0 | 0.00 | 0.00 | 0.00 | 74 | 974.8 |
| 20260505120008 | 55 | 327 | 0.0 | 0.0 | 0.00 | 0.00 | 0.00 | 75 | 974.8 |
| 20260505114506 | 55 | 321 | 0.0 | 0.0 | 0.00 | 0.00 | 0.00 | 75 | 974.8 |
| 20260505113006 | 55 | 321 | 0.0 | 0.0 | 0.00 | 0.00 | 0.00 | 75 | 974.8 |
| 20260505111505 | 55 | 313 | 0.0 | 0.0 | 0.00 | 0.00 | 0.00 | 75 | 974.8 |
| 20260505101601 | 55 | 313 | 0.0 | 0.0 | 0.00 | 0.00 | 0.00 | 75 | 974.8 |
| 20260505094632 | 55 | 246 | 0.0 | 0.0 | 0.00 | 0.00 | 0.00 | 75 | 974.8 |
| 20260505093101 | 55 | 249 | 0.0 | 0.0 | 0.00 | 0.00 | 0.00 | 76 | 974.8 |
| 20260505091611 | 55 | 248 | 0.0 | 0.0 | 0.00 | 0.00 | 0.00 | 77 | 974.8 |
| 20260505090105 | 55 | 35 | 0.0 | 0.0 | 0.00 | 0.00 | 0.00 | 79 | 974.8 |
| 20260505084558 | 55 | 35 | 0.0 | 0.0 | 0.00 | 0.00 | 0.00 | 79 | 974.8 |
| 20260505083102 | 55 | 55 | 0.0 | 0.0 | 0.00 | 0.00 | 0.00 | 80 | 974.8 |
| 20260505081600 | 55 | 68 | 0.0 | 0.0 | 0.00 | 0.00 | 0.00 | 79 | 974.8 |
| 20260505080053 | 55 | 161 | 0.0 | 0.0 | 0.00 | 0.00 | 0.00 | 78 | 974.8 |
| 20260505074552 | 55 | 161 | 0.0 | 0.0 | 0.00 | 0.00 | 0.00 | 78 | 974.8 |
| 20260505071550 | 56 | 161 | 0.0 | 0.0 | 0.00 | 0.00 | 0.00 | 77 | 974.8 |
| 20260505070044 | 56 | 161 | 0.0 | 0.0 | 0.00 | 0.00 | 0.00 | 77 | 974.8 |
| 20260505064546 | 56 | 161 | 0.0 | 0.0 | 0.00 | 0.00 | 0.00 | 77 | 974.8 |
| 20260505063043 | 56 | 131 | 0.0 | 0.0 | 0.00 | 0.00 | 0.00 | 77 | 974.8 |
| 20260505061543 | 56 | 28 | 0.0 | 0.0 | 0.00 | 0.00 | 0.00 | 77 | 974.8 |
| 20260505060042 | 56 | 28 | 0.0 | 0.0 | 0.00 | 0.00 | 0.00 | 77 | 974.8 |
| 20260505054551 | 56 | 252 | 0.0 | 0.0 | 0.00 | 0.00 | 0.00 | 77 | 974.8 |
| 20260505053041 | 56 | 252 | 0.0 | 0.0 | 0.00 | 0.00 | 0.00 | 77 | 974.8 |
| 20260505051541 | 56 | 252 | 0.0 | 0.0 | 0.00 | 0.00 | 0.00 | 78 | 974.8 |
| 20260505041539 | 57 | 261 | 0.0 | 0.0 | 0.00 | 0.00 | 0.00 | 76 | 974.8 |
| 20260505040039 | 57 | 263 | 0.0 | 0.0 | 0.00 | 0.00 | 0.00 | 76 | 974.8 |
| 20260505034539 | 57 | 240 | 0.0 | 0.0 | 0.00 | 0.00 | 0.00 | 75 | 974.8 |
| 20260505033041 | 58 | 254 | 0.0 | 0.0 | 0.00 | 0.00 | 0.00 | 74 | 974.8 |
| 20260505031551 | 58 | 275 | 0.0 | 0.0 | 0.00 | 0.00 | 0.00 | 74 | 974.8 |
| 20260505030039 | 58 | 264 | 0.0 | 0.0 | 0.00 | 0.00 | 0.00 | 74 | 974.8 |
| 20260505024547 | 59 | 270 | 0.0 | 0.0 | 0.00 | 0.00 | 0.00 | 74 | 974.8 |
| 20260505023041 | 60 | 237 | 0.0 | 0.0 | 0.00 | 0.00 | 0.00 | 73 | 974.8 |
| 20260505021536 | 60 | 272 | 0.0 | 0.0 | 0.00 | 0.00 | 0.00 | 71 | 974.8 |
| 20260505020036 | 61 | 238 | 0.0 | 0.0 | 0.00 | 0.00 | 0.00 | 69 | 974.8 |
| 20260505014558 | 61 | 273 | 0.0 | 0.0 | 0.00 | 0.00 | 0.00 | 68 | 974.8 |
| 20260505013035 | 62 | 280 | 0.0 | 0.0 | 0.00 | 0.00 | 0.00 | 66 | 974.8 |
| 20260505011541 | 63 | 265 | 0.0 | 0.0 | 0.00 | 0.00 | 0.00 | 64 | 974.8 |
| 20260505010035 | 63 | 273 | 0.0 | 0.0 | 0.00 | 0.00 | 0.00 | 64 | 974.8 |
| 20260505004534 | 63 | 269 | 0.0 | 0.0 | 0.00 | 0.00 | 0.00 | 62 | 974.8 |
| 20260505003032 | 64 | 222 | 0.0 | 0.0 | 0.00 | 0.00 | 0.00 | 60 | 974.8 |
| 20260505001536 | 64 | 254 | 0.0 | 0.0 | 0.00 | 0.00 | 0.00 | 60 | 974.8 |
| 20260505000032 | 65 | 272 | 0.0 | 0.0 | 0.00 | 0.00 | 0.00 | 61 | 974.8 |
| 20260504234531 | 65 | 259 | 0.0 | 0.0 | 0.00 | 0.00 | 0.00 | 62 | 974.8 |
| 20260504233029 | 65 | 209 | 0.0 | 0.0 | 0.00 | 0.00 | 0.00 | 62 | 974.8 |
| 20260504231526 | 64 | 213 | 0.0 | 0.0 | 0.00 | 0.00 | 0.00 | 62 | 974.8 |
| 20260504230025 | 64 | 252 | 0.0 | 0.0 | 0.00 | 0.00 | 0.00 | 62 | 974.8 |
| 20260504224533 | 64 | 206 | 0.0 | 0.0 | 0.00 | 0.00 | 0.00 | 65 | 974.8 |
| 20260504223023 | 64 | 218 | 0.0 | 0.0 | 0.00 | 0.00 | 0.00 | 65 | 974.8 |
| 20260504221523 | 65 | 268 | 0.0 | 0.0 | 0.00 | 0.00 | 0.00 | 67 | 974.8 |
| 20260504220021 | 64 | 255 | 0.0 | 0.0 | 0.00 | 0.00 | 0.00 | 68 | 974.8 |
| 20260504214525 | 64 | 267 | 0.0 | 0.0 | 0.00 | 0.00 | 0.00 | 67 | 974.8 |
| 20260504213021 | 63 | 286 | 0.0 | 0.0 | 0.00 | 0.00 | 0.00 | 66 | 974.8 |
| 20260504211518 | 64 | 225 | 0.0 | 0.0 | 0.00 | 0.00 | 0.00 | 69 | 974.8 |
| 20260504210031 | 63 | 272 | 0.0 | 0.0 | 0.00 | 0.00 | 0.00 | 71 | 974.8 |
| 20260504204527 | 63 | 246 | 0.0 | 0.0 | 0.00 | 0.00 | 0.00 | 71 | 974.8 |
| 20260504203017 | 63 | 239 | 0.0 | 0.0 | 0.00 | 0.00 | 0.00 | 72 | 974.8 |
| 20260504201513 | 63 | 210 | 0.0 | 0.0 | 0.00 | 0.00 | 0.00 | 73 | 974.8 |
| 20260504200012 | 63 | 178 | 0.0 | 0.0 | 0.00 | 0.00 | 0.00 | 73 | 974.8 |
| 20260504194514 | 63 | 216 | 0.0 | 0.0 | 0.00 | 0.00 | 0.00 | 73 | 974.8 |
| 20260504193011 | 63 | 221 | 0.0 | 0.0 | 0.00 | 0.00 | 0.00 | 74 | 974.8 |
| 20260504191510 | 63 | 230 | 0.0 | 0.0 | 0.00 | 0.00 | 0.00 | 71 | 974.8 |
| 20260504190008 | 63 | 273 | 0.0 | 0.0 | 0.00 | 0.00 | 0.00 | 71 | 974.8 |
| 20260504184507 | 63 | 259 | 0.0 | 0.0 | 0.00 | 0.00 | 0.00 | 72 | 974.8 |
| 20260504183009 | 64 | 215 | 0.0 | 0.0 | 0.00 | 0.00 | 0.00 | 71 | 974.8 |
| 20260504181506 | 64 | 179 | 0.0 | 0.0 | 0.00 | 0.00 | 0.00 | 71 | 974.8 |
| 20260504180119 | 63 | 190 | 0.0 | 0.0 | 0.00 | 0.00 | 0.00 | 74 | 974.8 |
| 20260504174556 | 63 | 138 | 0.0 | 0.0 | 0.00 | 0.00 | 0.00 | 74 | 974.8 |
| 20260504173106 | 62 | 156 | 0.0 | 0.0 | 0.00 | 0.00 | 0.00 | 75 | 974.8 |
| 20260504171549 | 61 | 149 | 0.0 | 0.0 | 0.00 | 0.00 | 0.00 | 76 | 974.8 |